sat.trackr.live / text

‹ back to catalog

CARTOSAT-2B

NORAD 36795 · 2010-035A

PAYLOAD ACTIVE UNKNOWN

§ Identity

Operator
Country
IND
Launch date
2010-07-12
Launch site
SRILR
Launch vehicle
Mass (kg)
RCS (m²)
2.25

Purposes: earth_obs

External: N2YO · Heavens-Above · Gunter

§ Orbital elements

Epoch: 2026-09-20T03:30:30.720096Z

Period
97.39 min
Inclination
97.9860°
Eccentricity
0.0010160
Mean motion
14.78650344 rev/d
Perigee alt
626.5 km
Apogee alt
640.7 km
Semi-major
7,011.7 km
B*
1.1625e-5
RAAN
313.0396°
Arg perigee
241.6463°
Mean anomaly
118.3724°
Rev number
87,388

§ Raw data

CARTOSAT-2B1 36795U 10035A   26263.14618889  .00000033  00000+0  11625-4 0  99972 36795  97.9860 313.0396 0010160 241.6463 118.3724 14.78650344873882

JSON: /api/v1/satellites/36795 · /tle

For live sub-satellite position, see the globe view (requires WebGL).

§ Visibility from observer

Set your observer location to see the next 7 days of passes ≥ 10°. The values pass through the URL so the page stays shareable.

No JS? Fill the form by hand. The geolocation button needs JavaScript.

§ Radio — SatNOGS DB

ModeDescriptionDownlinkUplink
CW Beacon 2.246 GHz

1 transmitter · refreshed weekly from db.satnogs.org